Calgary Springbank,

7:26 AM MDT on July 27, 2017 (GMT -0600)
Calgary Springbank

Weather History for CYBW - July, 2014

Change the Weather History Date:

Wednesday, July 23, 2014

  Actual Average Record
Temperature  
Mean Temperature 62 °F -  
Max Temperature 77 °F 69 °F 86 °F (2007)
Min Temperature 46 °F 42 °F 35 °F (2011)
Degree Days  
Heating Degree Days 4    
Growing Degree Days 12 (Base 50)    
Moisture  
Dew Point 50 °F    
Average Humidity 68    
Maximum Humidity 93    
Minimum Humidity 36    
Precipitation  
Precipitation 0.00 in - - ()
Sea Level Pressure  
Sea Level Pressure 30.01 in    
Wind  
Wind Speed 7 mph ()    
Max Wind Speed 24 mph    
Max Gust Speed 33 mph    
Visibility 9.0 miles    
Events Rain , Thunderstorm    
Averages and records for this station are not official NWS values.
T = Trace of Precipitation, MM = Missing Value Source: Averaged Metar Reports

Daily Weather History Graph

Daily Weather History Graph

Search for Another Location

Airport or City:

Trip Planner

Search our weather history database for the weather conditions in past years. The results will help you decide how hot, cold, wet, or windy it might be!

Date:

Astronomy

Jul. 23, 2014 Rise Set
Actual Time 5:50 AM MDT 9:36 PM MDT
Civil Twilight 5:08 AM MDT 10:18 PM MDT
Nautical Twilight 4:09 AM MDT 11:16 PM MDT
Astronomical Twilight 2:34 AM MDT 12:48 AM MDT
Moon 3:15 AM MDT (7/23) 7:06 PM MDT (7/23)
Length of Visible Light 17h 10m
Length of Day
15h 46m
Waning Crescent, 9% of the Moon is Illuminated
Jul 23
Waning Crescent
Jul 26
New
Aug 3
First Quarter
Aug 10
Full
Aug 17
Last Quarter

Hourly Weather History & Observations

Time (MDT) Temp. Dew Point Humidity Pressure Visibility Wind Dir Wind Speed Gust Speed Precip Events Conditions
12:00 AM 51.8 °F 46.4 °F 82% 30.12 in 9.0 mi South 5.8 mph - N/A   Clear
1:00 AM 50.0 °F 46.4 °F 87% 30.13 in 9.0 mi SSW 8.1 mph - N/A   Clear
2:00 AM 48.2 °F 44.6 °F 87% 30.13 in 9.0 mi Calm Calm - N/A   Clear
3:00 AM 46.4 °F 44.6 °F 93% 30.13 in 9.0 mi Variable 2.3 mph - N/A   Mostly Cloudy
4:00 AM 50.0 °F 42.8 °F 76% 30.11 in 9.0 mi WSW 4.6 mph - N/A   Clear
6:00 AM 48.2 °F 42.8 °F 82% 30.12 in 9.0 mi South 3.5 mph - N/A   Clear
7:00 AM 50.0 °F 46.4 °F 87% 30.13 in 9.0 mi SSW 10.4 mph - N/A   Clear
8:00 AM 55.4 °F 48.2 °F 77% 30.12 in 9.0 mi North 3.5 mph - N/A   Clear
9:00 AM 62.6 °F 51.8 °F 68% 30.11 in 9.0 mi NW 4.6 mph - N/A   Partly Cloudy
10:00 AM 66.2 °F 53.6 °F 64% 30.09 in 9.0 mi NNW 4.6 mph - N/A   Mostly Cloudy
11:00 AM 68.0 °F 53.6 °F 60% 30.10 in 9.0 mi NNW 3.5 mph - N/A   Mostly Cloudy
12:00 PM 69.8 °F 51.8 °F 53% 30.08 in 9.0 mi NNW 4.6 mph - N/A   Mostly Cloudy
1:00 PM 73.4 °F 48.2 °F 41% 30.05 in 9.0 mi NW 5.8 mph - N/A   Mostly Cloudy
3:00 PM 77.0 °F 48.2 °F 36% 30.02 in 9.0 mi ESE 11.5 mph - N/A   Partly Cloudy
6:00 PM 77.0 °F 48.2 °F 36% 29.95 in 9.0 mi SSE 13.8 mph 20.7 mph N/A   Clear
7:00 PM 75.2 °F 51.8 °F 44% 29.91 in 9.0 mi ESE 11.5 mph - N/A   Clear
9:00 PM 69.8 °F 51.8 °F 53% 29.86 in 9.0 mi SE 8.1 mph - N/A   Clear
10:00 PM 68.0 °F 55.4 °F 64% 29.85 in 9.0 mi SE 8.1 mph - N/A   Overcast
10:40 PM 68.0 °F 55.4 °F 64% 29.85 in 9.0 mi SSE 10.4 mph - N/A Thunderstorm Overcast
10:49 PM 66.2 °F 57.2 °F 73% 29.87 in 9.0 mi South 12.7 mph - N/A Rain , Thunderstorm Light Thunderstorms and Rain
10:51 PM 66.2 °F 57.2 °F 73% 29.87 in 9.0 mi South 24.2 mph 31.1 mph N/A Rain , Thunderstorm Light Thunderstorms and Rain
11:08 PM 62.6 °F 51.8 °F 68% 29.90 in 9.0 mi South 18.4 mph 33.4 mph N/A Thunderstorm Thunderstorm
11:12 PM 60.8 °F 51.8 °F 72% 29.90 in 9.0 mi SSW 17.3 mph 33.4 mph N/A Rain , Thunderstorm Light Thunderstorms and Rain
11:16 PM 60.8 °F 53.6 °F 77% 29.91 in 9.0 mi South 16.1 mph 27.6 mph N/A Rain , Thunderstorm Light Rain
11:28 PM 57.2 °F 53.6 °F 88% 29.90 in 9.0 mi South 6.9 mph 17.3 mph N/A Rain Light Rain